GEFSCGP_850_meantemp_000.txt.gz
Temperature
21 20 20 20 20 19 18 18 19 19 19 18 18 18 19 20 19 20 22 24 25 25 24 24 25 25 25 24 23 22 22 21 20 20 19 19 19 18 18 18 18 17 17 17
20 20 21 20 19 19 19 18 18 19 19 18 18 18 19 19 19 20 21 23 24 26 25 24 26 25 25 24 24 22 21 21 20 20 19 19 19 18 18 18 18 17 17 17
21 22 22 22 20 19 19 18 18 18 18 18 17 17 17 19 20 20 20 20 21 23 24 23 24 25 25 24 23 22 21 21 20 19 19 19 18 18 17 17 18 18 18 17
22 23 23 22 20 20 18 19 19 18 16 15 16 15 16 18 18 19 19 19 20 21 22 22 22 23 23 24 23 22 22 21 20 20 19 19 18 18 17 17 18 18 18 17
21 22 22 22 21 20 18 17 16 16 15 15 15 15 16 17 17 18 18 20 22 22 21 21 20 20 21 21 22 21 21 21 20 20 19 18 18 18 17 17 17 18 17 17
21 22 22 22 22 20 18 17 15 15 14 15 15 16 15 16 16 17 19 21 21 23 22 22 21 20 19 21 20 21 21 20 20 19 18 18 17 17 17 17 17 17 17 17
19 20 21 21 20 20 18 17 16 14 15 16 15 15 13 14 15 16 16 18 18 19 21 20 20 19 19 19 20 21 20 20 20 19 18 17 17 17 17 17 17 17 17 16
16 15 18 19 19 18 18 17 16 14 15 15 17 15 13 15 15 16 15 14 15 15 17 18 19 20 17 18 18 21 21 19 20 20 18 18 17 17 17 18 17 17 17 16
16 16 19 19 18 17 15 15 15 15 15 14 14 14 15 15 14 15 15 14 14 14 15 15 16 16 17 19 21 22 20 19 20 20 18 17 17 17 17 17 17 17 16 16
16 13 16 17 16 16 14 14 11 13 13 13 13 13 12 13 13 14 14 14 14 14 17 17 17 17 19 21 21 20 19 18 20 20 18 18 18 17 17 17 17 17 16 16
15 13 13 14 12 12 12 12 11 12 12 12 12 12 13 12 13 12 14 14 14 16 17 18 19 19 19 19 20 19 17 19 21 20 19 18 19 18 17 17 17 16 16 16
15 12 12 12 13 13 12 11 11 11 11 11 13 12 14 13 13 11 13 13 13 15 16 17 20 20 21 21 20 19 18 19 21 20 19 19 19 18 18 18 18 17 16 16
15 12 11 11 11 12 11 12 12 12 12 12 12 12 14 12 12 11 11 11 12 13 15 17 19 19 20 21 21 20 19 20 20 19 19 19 19 18 18 18 17 17 17 16
14 12 11 11 11 11 10 11 13 12 11 12 12 11 12 12 12 11 11 11 12 15 17 18 19 19 19 20 20 19 19 19 19 19 18 18 17 17 17 16 16 16 16 16
12 12 12 12 12 12 11 11 12 12 12 12 12 11 11 12 11 11 10 11 12 13 18 18 18 19 20 19 19 19 18 18 18 17 16 16 16 16 15 15 14 14 14 15
12 12 12 12 12 12 10 10 11 11 11 11 11 11 12 11 10 10 11 12 12 12 14 16 17 18 18 19 18 18 18 18 18 18 17 17 18 16 16 17 15 16 16 16
12 10 11 10 11 12 9 9 9 10 10 11 9 11 11 10 10 10 11 11 12 12 14 14 15 16 17 18 17 17 17 17 18 17 17 17 17 17 15 15 15 15 15 15
11 11 10 9 11 10 10 10 10 10 10 10 10 10 10 10 10 11 11 11 12 14 14 14 15 15 15 15 16 16 15 16 16 15 15 15 16 16 15 14 15 15 14 15
10 10 10 9 8 9 10 11 9 9 9 10 9 10 10 10 12 13 12 12 13 14 14 14 14 15 15 15 15 15 15 14 14 14 14 14 15 14 14 14 14 14 14 14
11 10 9 9 9 8 10 11 10 10 9 10 9 9 9 9 10 12 12 13 14 15 14 14 14 14 14 14 14 15 14 13 13 12 12 12 12 13 13 13 13 13 12 13
10 9 8 9 9 9 11 11 10 8 9 10 10 10 9 9 9 11 12 14 15 15 15 14 14 14 14 14 14 13 13 13 12 12 12 11 11 11 11 11 11 11 11 11
10 9 9 8 9 8 11 9 8 9 10 10 10 10 11 11 12 12 13 15 15 15 15 15 15 15 14 14 14 14 13 12 12 12 12 11 11 11 11 11 11 11 11 11
9 11 9 10 10 11 11 10 11 10 10 11 11 11 11 12 12 13 14 15 15 15 15 15 14 15 14 14 14 14 13 13 12 12 12 12 12 12 11 11 11 11 11 11
12 12 10 10 10 11 11 11 11 11 11 12 12 12 12 12 13 13 14 15 15 16 15 15 15 15 15 14 14 14 14 13 13 13 12 12 11 11 11 11 11 11 11 11
11 12 10 10 10 11 11 12 12 12 12 12 12 12 12 12 13 13 14 15 15 15 15 15 15 15 15 15 15 14 14 14 13 12 12 12 11 11 11 11 11 11 11 10
12 11 10 10 11 11 12 13 12 12 12 12 12 12 12 12 13 13 14 14 15 15 15 16 16 16 15 15 15 15 14 14 13 13 12 12 11 11 11 11 11 11 11 10

GEFSCGP_850_meantemp_006.txt.gz
Temperature
20 19 19 19 19 20 20 19 18 18 19 18 17 17 17 18 17 17 17 18 19 20 21 22 22 23 23 23 23 23 22 22 21 20 20 20 19 19 18 18 17 17 17 17
18 19 20 20 19 18 18 18 18 18 18 18 16 16 16 16 16 15 15 15 16 18 20 21 22 23 23 23 24 23 23 22 22 21 20 20 20 19 18 18 17 17 17 17
20 20 20 19 18 18 17 17 18 18 17 17 16 16 15 15 15 15 15 14 15 16 17 20 21 23 23 23 23 23 23 22 21 21 20 20 19 19 18 18 17 17 17 17
20 19 19 19 18 18 17 17 17 17 16 15 16 14 15 13 13 15 15 15 14 14 16 18 19 21 22 22 21 21 21 21 20 20 20 20 20 19 18 17 17 17 17 17
19 18 17 17 17 18 17 16 15 15 15 14 14 14 14 12 13 14 14 14 14 13 14 16 17 18 19 20 19 19 19 20 19 19 19 19 19 19 18 17 17 17 17 17
17 18 17 17 17 17 17 16 15 13 13 14 15 14 14 13 13 13 14 14 14 13 14 15 16 17 17 18 18 18 19 19 18 18 18 18 18 18 18 17 17 17 17 17
15 16 16 17 16 16 15 14 13 14 13 13 15 14 14 14 14 14 14 13 13 13 13 14 16 16 16 16 17 17 18 18 17 17 17 17 17 18 17 17 17 17 17 17
14 14 14 15 14 14 13 14 13 13 13 13 15 14 13 14 14 13 13 13 12 13 13 14 15 16 16 15 15 16 17 16 16 16 16 16 17 17 17 17 17 16 16 16
13 13 14 15 14 13 12 11 11 11 12 13 13 13 14 13 13 13 12 12 12 12 13 14 14 14 14 14 14 14 15 15 15 15 15 16 17 17 17 16 16 16 16 16
13 12 13 13 13 12 11 10 9 10 12 12 13 12 12 11 11 12 11 11 11 12 13 14 14 13 13 13 13 13 14 14 15 15 15 16 17 17 17 17 17 16 16 16
12 12 11 11 11 10 10 10 10 10 10 11 12 12 12 11 11 11 11 11 11 11 12 14 14 14 14 14 14 14 14 15 15 15 16 17 17 17 17 17 17 17 16 16
11 9 9 11 11 11 10 10 10 10 11 11 11 11 12 11 11 11 11 11 11 11 13 14 14 14 14 15 15 15 15 15 15 16 16 17 17 17 18 18 17 17 17 17
11 10 9 10 10 11 10 10 10 11 11 11 11 12 12 11 11 11 11 11 11 11 13 14 14 15 15 15 16 16 16 16 16 16 17 17 17 18 18 17 17 17 17 16
11 9 9 9 9 10 10 11 11 11 11 11 11 11 11 10 10 10 10 11 11 11 12 13 13 14 15 16 17 17 16 16 17 17 18 18 17 17 17 17 17 16 16 16
9 9 10 10 11 11 11 11 11 11 10 10 10 10 10 9 9 9 10 11 11 11 12 13 13 14 14 15 16 16 16 16 17 17 17 17 17 16 16 16 16 16 15 15
9 10 10 10 11 11 10 10 11 10 10 10 10 10 10 9 9 10 10 10 11 11 12 13 13 14 14 14 15 15 16 16 16 16 16 16 16 16 16 16 16 15 15 15
8 9 9 9 10 11 9 9 9 10 9 9 9 9 9 9 10 10 10 10 11 12 12 12 13 13 13 14 14 15 15 15 15 15 15 16 16 16 15 15 14 14 14 14
9 8 7 8 10 9 10 10 10 10 10 9 9 9 9 9 10 11 11 11 12 12 12 12 12 12 12 12 13 13 13 13 13 14 14 14 14 14 14 14 13 13 13 13
8 8 7 7 8 9 10 10 9 9 10 10 10 10 10 10 12 12 12 12 13 13 13 13 13 12 12 12 12 13 12 12 12 12 12 12 13 13 13 13 12 12 12 12
8 7 7 7 9 8 9 10 10 9 10 10 10 10 10 9 10 11 12 13 13 13 13 13 13 13 13 13 13 13 12 12 12 12 12 12 11 11 12 11 11 11 11 11
8 7 7 7 8 8 9 10 10 9 10 10 10 10 10 9 9 11 13 14 14 14 14 14 14 13 13 13 13 13 12 12 12 12 12 11 11 11 11 11 11 11 11 11
8 7 7 7 8 9 11 9 9 9 11 10 11 11 10 11 12 13 13 14 15 14 14 14 14 14 14 14 13 13 13 12 12 12 12 11 11 11 11 11 11 11 11 11
7 8 7 7 8 10 11 11 11 11 11 11 11 11 11 11 12 13 14 14 15 15 15 15 14 14 14 14 14 14 13 13 12 12 12 11 11 11 11 11 11 11 11 11
8 8 7 8 8 10 11 11 11 11 11 11 11 11 11 12 12 13 13 14 15 15 15 15 15 15 15 15 14 14 14 13 13 12 12 11 11 11 11 11 11 11 10 10
8 7 7 8 9 10 11 12 12 12 11 11 11 11 12 12 12 13 13 14 14 15 15 15 15 15 15 15 15 15 14 14 13 12 12 11 11 10 11 11 11 11 10 10
7 7 8 8 10 10 12 12 12 12 12 12 12 12 12 12 12 13 13 13 14 15 15 15 16 16 16 16 15 15 15 14 14 13 12 11 11 11 11 11 11 10 10 10

GEFSCGP_850_meantemp_012.txt.gz
Temperature
24 25 24 24 24 24 24 24 24 24 24 23 23 22 21 20 20 20 20 20 19 19 19 19 19 19 20 20 21 21 21 20 20 20 19 19 19 19 18 18 18 17 17 17
25 24 23 23 23 23 24 23 24 24 23 23 23 22 21 20 19 19 19 19 19 18 18 18 19 19 19 20 21 21 21 20 20 20 20 20 20 19 19 18 18 18 17 17
24 23 23 23 23 23 23 23 23 23 23 22 23 22 21 20 20 19 18 18 18 17 17 16 17 17 18 19 20 21 21 20 19 20 20 20 20 19 19 18 18 17 17 17
23 22 23 23 22 22 23 21 21 22 22 23 22 22 22 20 20 20 19 18 17 17 16 16 15 16 17 18 19 20 20 19 19 19 20 20 19 19 18 18 18 17 17 17
21 21 21 20 20 20 20 20 21 21 21 22 22 21 22 20 19 19 19 18 17 16 16 15 15 15 16 17 18 19 19 18 18 18 18 19 18 18 18 18 18 17 17 17
21 20 19 19 20 20 20 20 21 21 21 20 22 22 21 18 18 18 18 17 17 16 16 15 15 15 15 16 17 17 17 17 17 17 17 17 17 16 17 17 17 17 17 17
21 19 19 18 19 19 19 19 19 19 19 20 21 20 17 16 17 17 17 17 16 16 15 15 15 14 15 15 16 16 16 16 16 16 16 16 16 16 16 16 16 16 16 17
19 19 17 18 17 17 18 17 16 16 18 18 19 18 15 16 16 16 16 16 16 15 15 15 14 14 14 14 15 15 15 15 15 15 14 15 15 15 15 15 15 15 15 16
18 18 17 17 17 17 16 16 16 16 17 17 18 17 15 17 17 16 16 15 15 15 15 14 14 13 13 13 14 14 14 14 14 14 14 14 14 14 14 14 14 15 15 16
18 18 17 17 17 16 15 14 15 15 15 16 17 16 14 14 15 15 15 14 14 14 14 14 13 13 12 13 13 13 13 13 13 13 13 13 13 13 14 14 14 15 15 15
18 18 17 16 15 13 13 13 13 14 15 14 15 13 13 12 12 13 13 13 13 13 13 13 13 13 12 12 12 13 13 13 13 13 13 13 13 14 14 14 14 15 15 16
17 18 17 16 15 14 13 12 12 12 13 13 13 12 12 11 11 11 11 11 11 12 12 13 13 13 13 12 12 12 13 13 13 13 13 13 14 14 14 14 15 15 15 15
17 17 17 17 16 14 13 13 13 13 12 11 11 11 11 10 10 10 10 10 10 11 11 12 12 12 13 13 13 13 13 13 13 13 13 14 14 14 14 14 15 15 15 15
16 17 17 15 13 13 12 13 13 13 11 11 10 10 10 10 10 10 10 10 10 11 11 11 12 12 12 13 13 13 13 13 13 13 13 14 14 14 14 14 15 15 15 15
17 17 16 15 14 14 13 13 12 12 11 10 10 10 9 9 9 9 10 10 11 11 11 11 11 12 12 12 12 13 13 13 13 14 14 14 14 14 14 14 15 15 15 14
17 16 16 15 15 15 14 13 13 12 11 11 11 11 10 10 10 10 10 11 12 12 12 12 12 12 12 12 12 12 13 13 13 13 13 13 13 13 14 14 14 14 14 14
16 17 16 16 15 15 15 14 12 12 11 10 10 11 11 12 12 12 11 12 12 12 12 12 12 12 12 12 12 12 12 12 12 12 12 12 12 13 13 13 13 13 13 13
16 16 16 16 16 16 15 14 13 12 12 11 11 12 13 13 13 13 12 12 13 13 13 12 12 12 12 12 12 12 12 12 12 12 12 12 12 12 12 12 12 12 12 12
15 16 16 16 15 16 15 14 14 14 14 13 13 13 13 14 16 15 13 12 13 13 13 13 13 13 13 12 13 13 12 12 12 12 11 11 11 11 11 11 11 12 11 11
15 15 16 16 17 16 16 15 13 14 15 14 14 14 14 15 17 15 13 13 13 13 13 13 13 13 13 12 13 13 13 12 11 11 11 11 11 11 11 11 11 11 11 11
16 16 16 17 17 17 15 13 13 15 15 14 14 14 14 14 14 13 12 13 13 13 14 14 14 14 13 13 13 14 13 12 11 11 11 11 11 11 11 11 11 10 10 10
17 17 16 16 17 16 14 13 15 15 14 13 13 13 13 13 13 13 13 13 13 14 14 14 14 14 14 14 14 14 13 12 12 11 11 11 11 10 10 11 11 11 11 10
16 16 17 17 17 14 13 14 13 12 13 13 13 12 12 12 13 13 13 13 13 14 14 15 15 15 14 14 14 14 13 13 12 12 11 11 11 10 11 11 10 10 10 10
16 14 15 15 16 14 13 13 12 12 13 12 12 12 12 12 12 13 13 13 13 14 14 15 15 15 15 15 15 14 14 14 13 12 12 11 11 11 11 11 10 10 10 10
17 15 15 16 16 14 14 13 13 12 12 12 12 12 12 12 12 12 12 13 13 13 14 14 15 15 15 15 15 15 15 14 13 12 12 11 11 11 11 10 10 10 10 10
16 15 16 17 16 16 16 14 13 13 13 12 12 12 12 12 12 12 12 12 13 13 14 14 15 15 15 15 15 15 15 15 14 13 12 12 11 11 11 10 10 10 10 9

GEFSCGP_850_meantemp_018.txt.gz
Temperature
28 27 26 26 27 26 26 26 26 26 26 25 25 25 25 24 24 24 24 24 23 22 22 21 20 20 21 21 21 22 22 23 22 22 22 21 21 20 20 19 19 19 19 19
28 26 26 27 27 26 26 26 26 26 26 25 24 24 25 24 24 23 23 23 23 21 21 20 19 19 19 19 20 21 22 22 22 22 21 21 21 20 20 19 19 19 19 18
27 26 26 26 26 25 24 24 24 23 24 25 24 24 25 25 24 23 22 22 21 21 20 19 19 18 18 18 18 19 20 21 22 22 22 21 20 20 19 19 19 18 18 18
26 25 25 25 24 23 22 23 23 22 22 22 24 22 24 24 22 22 21 21 21 20 20 19 18 17 17 17 17 18 19 19 20 21 21 21 20 19 19 19 18 18 18 18
23 23 23 22 22 22 22 23 22 22 22 22 23 22 22 20 18 17 18 19 20 20 19 18 17 17 16 16 16 17 18 18 19 20 20 20 20 19 19 18 18 17 17 17
23 23 22 21 22 23 23 23 23 23 22 20 21 21 18 15 15 15 16 18 18 18 18 17 16 16 15 15 15 16 16 17 18 18 19 19 19 18 18 17 17 17 16 16
23 22 22 21 21 21 21 20 20 20 20 19 19 18 14 14 15 15 15 16 17 17 17 16 15 14 14 14 14 15 15 16 17 17 17 18 18 17 17 16 16 16 16 16
24 21 20 20 20 19 20 20 18 17 18 19 19 16 13 14 14 15 15 16 16 15 15 14 14 14 13 13 13 14 14 15 15 16 16 16 16 16 15 15 15 15 15 15
23 21 21 20 20 19 18 18 19 18 19 19 18 15 15 14 14 14 14 14 14 14 14 13 13 13 13 13 13 13 13 14 14 14 14 14 14 14 14 14 14 14 14 14
23 21 20 21 20 19 18 18 17 17 16 16 17 14 11 12 12 13 13 13 12 12 12 13 13 13 13 13 12 12 13 13 13 13 13 13 13 13 13 13 13 13 13 13
22 22 21 20 18 17 17 17 16 17 16 14 14 12 11 10 11 11 11 11 11 11 12 12 12 12 12 12 12 12 12 12 13 13 13 13 13 13 13 13 13 13 13 14
22 21 21 18 18 18 17 16 16 15 14 13 12 11 10 10 10 10 10 10 10 11 11 12 12 12 12 12 12 12 12 12 12 12 13 13 13 13 13 14 14 14 14 14
19 21 20 18 18 18 17 17 16 15 14 12 11 10 10 9 10 10 10 10 11 11 12 12 12 12 12 12 12 12 12 13 13 13 13 13 13 14 14 14 14 14 15 15
18 21 19 17 16 17 16 16 16 15 13 11 10 10 10 10 10 10 11 11 12 12 13 13 13 13 13 13 13 13 13 13 13 13 13 13 14 14 14 14 14 14 14 14
21 21 19 19 19 18 17 16 16 15 14 12 11 11 11 11 11 11 12 13 13 14 14 14 14 14 13 13 13 13 13 13 13 13 13 13 13 13 13 14 14 14 14 14
21 21 20 19 19 19 18 17 16 15 15 14 14 13 14 13 13 13 13 14 14 14 14 14 14 14 14 14 14 13 13 13 13 12 12 13 13 13 13 13 13 13 13 13
21 21 21 20 20 19 18 18 17 16 16 15 14 15 15 15 15 15 14 15 15 15 15 15 15 15 15 15 14 14 13 13 12 12 12 12 12 12 12 12 12 12 12 12
21 21 21 21 20 19 18 18 17 16 16 16 16 17 16 16 15 15 15 15 15 15 15 15 15 15 15 15 15 14 14 13 12 12 12 12 12 12 12 12 12 12 11 11
20 20 20 21 19 19 18 18 18 18 17 17 17 18 18 17 17 16 15 15 15 15 15 15 15 15 15 15 15 15 14 13 12 12 12 12 11 11 11 11 11 11 11 11
20 20 20 21 20 19 19 19 18 18 17 18 18 18 18 17 16 16 16 15 15 15 15 15 15 15 15 15 15 15 14 13 12 12 12 11 11 11 11 11 11 11 11 11
21 20 20 20 21 20 19 18 18 17 17 18 18 17 17 17 16 16 16 15 15 15 15 15 15 15 15 15 15 15 14 13 13 12 12 12 12 12 11 11 11 11 11 11
22 21 21 21 20 18 18 18 18 18 18 18 17 17 16 16 16 16 16 15 15 15 15 15 15 15 16 16 15 15 14 14 13 13 13 12 12 12 11 11 11 11 11 11
21 21 20 20 19 18 18 18 18 18 18 17 17 16 16 16 16 16 16 15 15 15 15 15 15 16 16 16 16 15 15 14 14 13 13 13 12 12 11 11 11 11 11 10
23 21 20 20 20 18 18 18 16 17 17 16 16 16 16 16 16 16 16 15 15 15 15 15 15 15 16 16 16 15 15 14 14 14 13 13 12 12 11 11 11 11 10 10
22 20 20 20 21 19 18 17 17 16 17 16 16 16 15 15 15 15 15 15 15 15 15 15 15 15 16 16 16 15 15 14 14 14 14 13 12 12 11 11 11 10 10 10
23 21 20 21 21 20 18 17 17 16 16 16 16 16 15 15 15 15 15 15 15 15 15 15 15 15 15 15 15 15 15 15 14 14 14 13 12 12 11 11 11 10 10 10